When you browse on this site, cookies collect data to enhance your experience and personalize the content and advertising you see.
Visit our Privacy Policy to learn more. By continuing to use the site, you agree to this use of cookies and data.
  • In Switzerland
  • List of Countries
  • For 7 days
  • Water Temperature
  • Weather Map
  • Weather Widgets
  • user-avatar
    Login

    Hourly Weather Lukyaniki

    Today, 18 August, Sunday

    Time Temperature Precipitation Wind Pressure Humidity
    00:00 +14°C° 1.3 mm 3 mps 739 mmHg 98%
    01:00 +15°C° 1.3 mm 2 mps 739 mmHg 98%
    02:00 +15°C° 1.3 mm 2 mps 738 mmHg 99%
    03:00 +15°C° 1.2 mm 2 mps 738 mmHg 99%
    04:00 +15°C° 1.2 mm 2 mps 738 mmHg 98%
    05:00 +14°C° 1.2 mm 3 mps 738 mmHg 98%
    06:00 +13°C° 1.6 mm 3 mps 738 mmHg 98%
    07:00 +13°C° 1.6 mm 3 mps 738 mmHg 98%
    08:00 +13°C° 1.6 mm 3 mps 738 mmHg 98%
    09:00 +13°C° 1.2 mm 3 mps 738 mmHg 97%
    10:00 +13°C° 1.2 mm 3 mps 738 mmHg 97%
    11:00 +14°C° 1.2 mm 3 mps 738 mmHg 96%
    12:00 +15°C° 0.4 mm 2 mps 738 mmHg 96%
    13:00 +15°C° 0.4 mm 2 mps 739 mmHg 95%
    14:00 +16°C° 0.4 mm 2 mps 739 mmHg 94%
    15:00 +16°C° 0.1 mm 2 mps 739 mmHg 93%
    16:00 +17°C° 0.1 mm 2 mps 739 mmHg 92%
    17:00 +17°C° 0.1 mm 2 mps 740 mmHg 90%
    18:00 +16°C° 0 mm 2 mps 740 mmHg 92%
    19:00 +15°C° 0 mm 1 mps 740 mmHg 94%
    20:00 +15°C° 0 mm 1 mps 740 mmHg 95%
    21:00 +14°C° 0 mm 1 mps 741 mmHg 96%
    22:00 +14°C° 0 mm 1 mps 741 mmHg 96%
    23:00 +14°C° 0 mm 1 mps 741 mmHg 96%

    Tomorrow, 19 August, Monday

    Time Temperature Precipitation Wind Pressure Humidity
    00:00 +14°C° 0 mm 1 mps 741 mmHg 96%
    01:00 +13°C° 0 mm 1 mps 741 mmHg 96%
    02:00 +13°C° 0 mm 2 mps 742 mmHg 96%
    03:00 +13°C° 0 mm 1 mps 742 mmHg 96%
    04:00 +13°C° 0 mm 1 mps 742 mmHg 96%
    05:00 +13°C° 0 mm 1 mps 742 mmHg 95%
    06:00 +14°C° 0 mm 1 mps 742 mmHg 92%
    07:00 +16°C° 0 mm 2 mps 743 mmHg 89%
    08:00 +18°C° 0 mm 2 mps 743 mmHg 86%
    09:00 +19°C° 0 mm 2 mps 743 mmHg 79%
    10:00 +21°C° 0 mm 3 mps 743 mmHg 72%
    11:00 +24°C° 0 mm 3 mps 744 mmHg 66%
    12:00 +24°C° 0 mm 3 mps 744 mmHg 65%
    13:00 +25°C° 0 mm 4 mps 744 mmHg 64%
    14:00 +25°C° 0 mm 4 mps 744 mmHg 63%
    15:00 +25°C° 0 mm 4 mps 744 mmHg 67%
    16:00 +25°C° 0 mm 3 mps 744 mmHg 70%
    17:00 +24°C° 0 mm 3 mps 744 mmHg 74%
    18:00 +22°C° 0 mm 3 mps 744 mmHg 79%
    19:00 +20°C° 0 mm 3 mps 744 mmHg 85%
    20:00 +19°C° 0 mm 3 mps 744 mmHg 91%
    21:00 +19°C° 0 mm 3 mps 744 mmHg 91%
    22:00 +18°C° 0 mm 3 mps 744 mmHg 92%
    23:00 +18°C° 0 mm 3 mps 744 mmHg 93%

    Day after tomorrow, 20 August, Tuesday

    Time Temperature Precipitation Wind Pressure Humidity
    00:00 +18°C° 0 mm 2 mps 744 mmHg 94%
    01:00 +17°C° 0 mm 2 mps 744 mmHg 95%
    02:00 +17°C° 0 mm 2 mps 745 mmHg 96%
    03:00 +17°C° 0.3 mm 2 mps 745 mmHg 97%
    04:00 +18°C° 0.3 mm 1 mps 745 mmHg 97%
    05:00 +18°C° 0.3 mm 1 mps 745 mmHg 98%
    06:00 +19°C° 0.1 mm 1 mps 745 mmHg 96%
    07:00 +20°C° 0.1 mm 1 mps 745 mmHg 94%
    08:00 +20°C° 0.1 mm 2 mps 746 mmHg 93%
    09:00 +23°C° 0.1 mm 1 mps 746 mmHg 87%
    10:00 +24°C° 0.1 mm 1 mps 746 mmHg 82%
    11:00 +25°C° 0.1 mm 1 mps 746 mmHg 76%
    12:00 +25°C° 0.3 mm 1 mps 746 mmHg 78%
    13:00 +25°C° 0.3 mm 2 mps 746 mmHg 79%
    14:00 +25°C° 0.3 mm 2 mps 746 mmHg 80%
    15:00 +25°C° 0.6 mm 2 mps 746 mmHg 83%
    16:00 +25°C° 0.6 mm 1 mps 746 mmHg 85%
    17:00 +25°C° 0.6 mm 1 mps 746 mmHg 88%
    18:00 +23°C° 0.9 mm 1 mps 747 mmHg 90%
    19:00 +22°C° 0.9 mm 1 mps 747 mmHg 92%
    20:00 +21°C° 0.9 mm 1 mps 747 mmHg 95%
    21:00 +20°C° 0 mm 1 mps 747 mmHg 95%
    22:00 +17°C° 0 mm 0 mps 747 mmHg 95%
    23:00 +17°C° 0 mm 0 mps 747 mmHg 95%

    21 August, Wednesday

    Time Temperature Precipitation Wind Pressure Humidity
    00:00 +17°C° 0 mm 0 mps 747 mmHg 96%
    01:00 +18°C° 0 mm 1 mps 747 mmHg 96%
    02:00 +18°C° 0 mm 1 mps 747 mmHg 96%
    03:00 +18°C° 0 mm 1 mps 747 mmHg 96%
    04:00 +16°C° 0 mm 1 mps 747 mmHg 96%
    05:00 +16°C° 0 mm 1 mps 747 mmHg 96%
    06:00 +17°C° 0 mm 0 mps 748 mmHg 93%
    07:00 +18°C° 0 mm 0 mps 748 mmHg 90%
    08:00 +20°C° 0 mm 0 mps 748 mmHg 87%
    09:00 +21°C° 0 mm 0 mps 748 mmHg 81%
    10:00 +23°C° 0 mm 0 mps 748 mmHg 75%
    11:00 +24°C° 0 mm 0 mps 748 mmHg 69%
    12:00 +24°C° 0.3 mm 0 mps 747 mmHg 69%
    13:00 +24°C° 0.3 mm 0 mps 747 mmHg 69%
    14:00 +25°C° 0.3 mm 0 mps 747 mmHg 69%
    15:00 +26°C° 1 mm 1 mps 746 mmHg 75%
    16:00 +25°C° 1 mm 1 mps 746 mmHg 82%
    17:00 +24°C° 1 mm 1 mps 746 mmHg 88%
    18:00 +23°C° 0.2 mm 1 mps 745 mmHg 90%
    19:00 +22°C° 0.2 mm 1 mps 745 mmHg 92%
    20:00 +20°C° 0.2 mm 2 mps 745 mmHg 93%
    21:00 +20°C° 0.8 mm 2 mps 744 mmHg 94%
    22:00 +19°C° 0.8 mm 2 mps 744 mmHg 95%
    23:00 +19°C° 0.8 mm 2 mps 744 mmHg 96%

    22 August, Thursday

    Time Temperature Precipitation Wind Pressure Humidity
    00:00 +19°C° 0.8 mm 2 mps 744 mmHg 97%
    01:00 +19°C° 0.8 mm 2 mps 744 mmHg 97%
    02:00 +18°C° 0.8 mm 2 mps 744 mmHg 98%
    03:00 +17°C° 0.5 mm 3 mps 744 mmHg 97%
    04:00 +15°C° 0.5 mm 4 mps 744 mmHg 96%
    05:00 +14°C° 0.5 mm 4 mps 745 mmHg 96%
    06:00 +14°C° 0.1 mm 4 mps 745 mmHg 95%
    07:00 +14°C° 0.1 mm 4 mps 745 mmHg 93%
    08:00 +15°C° 0.1 mm 4 mps 746 mmHg 92%
    09:00 +17°C° 0 mm 4 mps 746 mmHg 84%
    10:00 +18°C° 0 mm 4 mps 747 mmHg 76%
    11:00 +20°C° 0 mm 4 mps 747 mmHg 68%
    12:00 +21°C° 0 mm 4 mps 747 mmHg 65%
    13:00 +21°C° 0 mm 3 mps 747 mmHg 61%
    14:00 +22°C° 0 mm 3 mps 747 mmHg 58%
    15:00 +22°C° 0 mm 3 mps 748 mmHg 62%
    16:00 +21°C° 0 mm 2 mps 748 mmHg 65%
    17:00 +21°C° 0 mm 2 mps 748 mmHg 69%
    18:00 +19°C° 0 mm 2 mps 748 mmHg 74%
    19:00 +17°C° 0 mm 2 mps 748 mmHg 78%
    20:00 +16°C° 0 mm 2 mps 748 mmHg 82%
    21:00 +15°C° 0 mm 2 mps 748 mmHg 85%
    22:00 +14°C° 0 mm 2 mps 748 mmHg 87%
    23:00 +14°C° 0 mm 2 mps 748 mmHg 90%

    23 August, Friday

    Time Temperature Precipitation Wind Pressure Humidity
    00:00 +13°C° 0 mm 2 mps 748 mmHg 91%
    01:00 +13°C° 0 mm 2 mps 749 mmHg 92%
    02:00 +12°C° 0 mm 2 mps 749 mmHg 93%
    03:00 +12°C° 0 mm 1 mps 749 mmHg 94%
    04:00 +11°C° 0 mm 1 mps 749 mmHg 94%
    05:00 +11°C° 0 mm 1 mps 749 mmHg 94%
    06:00 +13°C° 0 mm 1 mps 749 mmHg 87%
    07:00 +15°C° 0 mm 1 mps 749 mmHg 81%
    08:00 +18°C° 0 mm 1 mps 749 mmHg 74%
    09:00 +19°C° 0 mm 1 mps 749 mmHg 69%
    10:00 +20°C° 0 mm 1 mps 749 mmHg 63%
    11:00 +21°C° 0 mm 1 mps 749 mmHg 58%
    12:00 +20°C° 0.1 mm 2 mps 749 mmHg 59%
    13:00 +20°C° 0.1 mm 2 mps 749 mmHg 59%
    14:00 +20°C° 0.1 mm 2 mps 748 mmHg 60%
    15:00 +19°C° 0.2 mm 2 mps 748 mmHg 67%
    16:00 +19°C° 0.2 mm 2 mps 748 mmHg 73%
    17:00 +18°C° 0.2 mm 2 mps 748 mmHg 80%
    18:00 +16°C° 0.1 mm 2 mps 748 mmHg 83%
    19:00 +15°C° 0.1 mm 2 mps 748 mmHg 87%
    20:00 +14°C° 0.1 mm 2 mps 748 mmHg 91%
    21:00 +13°C° 0 mm 2 mps 748 mmHg 92%
    22:00 +13°C° 0 mm 2 mps 748 mmHg 93%
    23:00 +12°C° 0 mm 2 mps 748 mmHg 94%
    Show more